Flag for Germany Weather past 2 weeks in Zittau, Saxony, Germany

Now
31 °F

Light snow. Overcast.


Feels Like: 24 °F
Forecast: 21 / 28 °F
Wind: 7 mph from Northwest

Location: Liberec

Current Time: Dec 26, 2014 at 4:44:23 AM

Latest Report: Dec 26, 2014 at 4:00 AM


Visibility: 1 mi

Pressure: 30.18 "Hg

Humidity: 97%

Dew point: 30 °F

Location of ZittauLocation

Historic Weather in Zittau — Graph

°F

Zittau temperature yesterday

Maximum temperature yesterday: 43 °F (at 12:00 AM)
Minimum temperature yesterday: 34 °F (at 7:00 PM)
Average temperature yesterday: 37 °F

Past Weeks' High & Low Weather Summary

 TemperatureHumidityPressure
High51 °F (Dec 19, 4:00 AM)99% (Dec 14, 10:00 PM)30.32 "Hg (Dec 14, 10:00 PM)
Low31 °F (Dec 26, 3:00 AM)65% (Dec 23, 10:00 PM)29.66 "Hg (Dec 12, 9:00 PM)
Average41 °F85%29.96 "Hg
* Reported Dec 11 3:00 AM — Dec 26 3:00 AM, Zittau, Weather by CustomWeather, © 2014

Note: Actual official high and low records may vary slightly from our data, if they occured in-between our weather recording intervals... More about our weather records

Advertising

Zittau weather history for previous 24 hours

 ConditionsComfort  
Time TempWeatherWind HumidityBarometerVisibility
3:00 AM
Dec 26
31 °FLight snow. Overcast.10 mph96%30.14 "Hg1 mi
2:00 AM33 °FLight snow. Overcast.8 mph87%30.11 "Hg4 mi
1:00 AM34 °FLight rain. Overcast.8 mph84%30.09 "Hg12 mi
12:00 AM34 °FLight snow. Overcast.5 mph86%30.10 "Hg4 mi
11:00 PM
Dec 25
36 °FLight rain. Overcast.6 mph76%30.10 "Hg12 mi
10:00 PM36 °FChilly.7 mph76%30.11 "Hg12 mi
9:00 PM36 °FOvercast.6 mph76%30.11 "Hg16 mi
8:00 PM36 °FOvercast.7 mph82%30.11 "Hg12 mi
7:00 PM34 °FOvercast.1 mph92%30.10 "Hg11 mi
6:00 PM39 °FOvercast.7 mph73%30.08 "Hg14 mi
5:00 PM39 °FChilly.5 mph71%30.07 "Hg12 mi
4:00 PM38 °FLight rain. Overcast.5 mph78%30.08 "Hg9 mi
3:00 PM38 °FOvercast.5 mph75%30.08 "Hg9 mi
2:00 PM38 °FOvercast.5 mph74%30.08 "Hg17 mi
1:00 PM38 °FOvercast.5 mph72%30.09 "Hg17 mi
12:00 PM38 °FOvercast.5 mph74%30.10 "Hg17 mi
11:00 AM38 °FOvercast.5 mph75%30.11 "Hg17 mi
10:00 AM37 °FOvercast.5 mph78%30.11 "Hg16 mi
9:00 AM36 °FPartly sunny.1 mph83%30.10 "Hg12 mi
8:00 AM35 °FOvercast.1 mph89%30.09 "Hg14 mi
7:00 AM35 °FOvercast.5 mph86%30.08 "Hg14 mi
6:00 AM35 °FChilly.5 mph86%30.07 "Hg12 mi
5:00 AM36 °FChilly.6 mph87%30.06 "Hg12 mi
4:00 AM37 °FChilly.5 mph91%30.04 "Hg12 mi
Weather by CustomWeather, © 2014

See weather overviewHow to use our weather pages